Other Public Products
Issued by NWS Charleston, SC

Current Version | Previous Version | Graphics & Text | Print | Product List | Glossary On
Versions: 1 2 3 4 5 6 7 8 9 10 11 12 13 14 15 16 17 18 19 20 21 22 23 24 25 26 27 28 29 30 31 32 33 34 35 36 37 38 39 40 41 42 43 44 45 46 47 48 49 50
700 FPUS82 KCHS 230127 OPUCHS TEST...KCHS/KSAV Gateway Observations...TEST National Weather Service Charleston SC 900 PM EDT MON MAY 22 2017 NOTE: "fair" indicates few or no clouds below 12,000 feet with no significant weather and/or obstructions to visibility. SCZ050-WAZ558-NCZ071-TXZ119-213-PAZ071-DCZ001-FLZ074-172-MI076- NYZ176-178-MAZ016-IL014-TNZ027-NJZ106-GAZ044-MD014-230200- ...Gateway Observations for Charleston International... CITY SKY/WX TMP DP RH WIND PRES REMARKS Chas Airport LGT RAIN 75 72 90 S3 29.97R Seattle MOSUNNY 80 49 33 N14 30.05F Charlotte CLOUDY 71 63 75 SW3 29.97S Dallas DFW MOCLDY 74 62 66 SE10 29.89F Dallas Love MOCLDY 74 60 61 SE10 29.90F Philladelphia CLOUDY 66 61 84 W5 29.98S Wash National MOCLDY 69 64 84 S5 29.97S Baltimore CLOUDY 64 63 96 CALM 29.98R Miami PTCLDY 81 69 67 SE8 30.03R Detroit PTCLDY 66 46 48 SW9 29.97R Newark CLOUDY 60 60 100 CALM 29.96F Laguardia CLOUDY 61 60 97 CALM 29.95F J F K CLOUDY 60 60 100 CALM 29.97F FOG Boston Logan DRIZZLE 52 52 100 SE5 30.02F FOG Ft. Lauderdale PTCLDY 80 68 66 SE12 30.01R Chicago O`Hare CLOUDY 65 53 65 S18G24 29.90S Chicago Midway CLOUDY 65 55 70 SW14G23 29.92S Houston Bush CLOUDY 71 66 84 N9 29.86S Houston Hobby MOCLDY 73 68 84 N7 29.84S Nashville CLOUDY 70 52 52 NE6 29.97F Atlanta CLOUDY 71 66 84 SW3 29.96S $$ GAZ044-118-TXZ119-213-NCZ071-DCZ001-MDZ014-506-PAZ021-071-NJZ106- NYZ176-178-MAZ106-OHZ011-021-055-MIZ076-KYZ091-ILZ014-INZ047- MNZ060-ONZ431-230200- ...Gateway Observations for Savannah International... CITY SKY/WX TMP DP RH WIND PRES REMARKS Savannah Arpt HVY RAIN 73 70 90 NE8 29.96S Atlanta CLOUDY 71 66 84 SW3 29.96S Charlotte CLOUDY 71 63 75 SW3 29.97S Dallas DFW MOCLDY 74 62 66 SE10 29.89F Houston Bush CLOUDY 71 66 84 N9 29.86S Wash National MOCLDY 69 64 84 S5 29.97S Wash Dulles CLOUDY 68 63 84 CALM 29.97S Baltimore CLOUDY 64 63 96 CALM 29.98R Philadelphia CLOUDY 66 61 84 W5 29.98S Newark CLOUDY 60 60 100 CALM 29.96F Laguardia CLOUDY 61 60 97 CALM 29.95F J F K CLOUDY 60 60 100 CALM 29.97F FOG Boston DRIZZLE 52 52 100 SE5 30.02F FOG Pittsburg MOCLDY 60 46 59 W5 30.04R Akron MOCLDY 60 46 59 S3 30.02S Cleveland PTCLDY 65 46 50 S6 30.01S Cincinnati MOCLDY 60 47 61 SE5 30.02F Columbus CLEAR 60 47 60 CALM 30.03S Detroit PTCLDY 66 46 48 SW9 29.97R Chicago O`Hare CLOUDY 65 53 65 S18G24 29.90S Minneapolis MOCLDY 61 40 45 NW12 29.81S Indianapolis PTCLDY 65 46 50 SW6 29.99F Toronto Canada PTCLDY 57 45 62 S7 29.94R $$

USA.gov is the U.S. government's official web portal to all federal, state and local government web resources and services.